Tillbaka till svenska Fidonet
English   Information   Debug  
FILM   0/18
FNEWS_PUBLISH   5034
FN_SYSOP   42247
FN_SYSOP_OLD1   71952
FTP_FIDO   0/2
FTSC_PUBLIC   0/13979
FUNNY   0/4886
GENEALOGY.EUR   0/71
GET_INFO   105
GOLDED   0/408
HAM   0/16786
HOLYSMOKE   0/6791
HOT_SITES   0/1
HTMLEDIT   0/71
HUB203   466
HUB_100   264
HUB_400   39
HUMOR   0/29
IC   0/2851
INTERNET   0/424
INTERUSER   0/3
IP_CONNECT   719
JAMNNTPD   0/233
JAMTLAND   0/47
KATTY_KORNER   0/41
LAN   0/16
LINUX-USER   0/19
LINUXHELP   0/1155
LINUX   0/22427
LINUX_BBS   0/957
mail   18.68
mail_fore_ok   249
MENSA   0/341
MODERATOR   0/102
MONTE   0/992
MOSCOW_OKLAHOMA   0/1245
MUFFIN   0/783
MUSIC   0/321
N203_STAT   938
N203_SYSCHAT   313
NET203   321
NET204   69
NET_DEV   0/10
NORD.ADMIN   0/101
NORD.CHAT   0/2572
NORD.FIDONET   189
NORD.HARDWARE   0/28
NORD.KULTUR   0/114
NORD.PROG   0/32
NORD.SOFTWARE   0/88
NORD.TEKNIK   0/58
NORD   0/453
OCCULT_CHAT   0/93
OS2BBS   0/787
OS2DOSBBS   0/580
OS2HW   0/42
OS2INET   0/37
OS2LAN   0/134
OS2PROG   0/36
OS2REXX   0/113
OS2USER-L   207
OS2   0/4835
OSDEBATE   0/18996
PASCAL   0/490
PERL   0/457
PHP   0/45
POINTS   0/405
POLITICS   0/29554
POL_INC   0/14731
PSION   103
R20_ADMIN   1133
R20_AMATORRADIO   0/2
R20_BEST_OF_FIDONET   16
R20_CHAT   0/897
R20_DEPP   0/3
R20_DEV   400
R20_ECHO2   1934
R20_ECHOPRES   0/35
R20_ESTAT   0/719
R20_FIDONETPROG...
...RAM.MYPOINT
  0/2
R20_FIDONETPROGRAM   0/22
R20_FIDONET   0/248
R20_FILEFIND   0/24
R20_FILEFOUND   0/22
R20_HIFI   0/3
R20_INFO2   3827
R20_INTERNET   0/12940
R20_INTRESSE   0/60
R20_INTR_KOM   0/99
R20_KANDIDAT.CHAT   42
R20_KANDIDAT   28
R20_KOM_DEV   112
R20_KONTROLL   0/13360
R20_KORSET   0/18
R20_LOKALTRAFIK   0/24
R20_MODERATOR   0/1852
R20_NC   76
R20_NET200   245
R20_NETWORK.OTH...
...ERNETS
  0/13
R20_OPERATIVSYS...
...TEM.LINUX
  0/44
R20_PROGRAMVAROR   0/1
R20_REC2NEC   534
R20_SFOSM   0/341
R20_SF   0/108
R20_SPRAK.ENGLISH   0/1
R20_SQUISH   107
R20_TEST   2
R20_WORST_OF_FIDONET   20
RAR   0/9
RA_MULTI   106
RA_UTIL   0/162
REGCON.EUR   0/2072
REGCON   0/13
SCIENCE   0/1206
SF   0/239
SHAREWARE_SUPPORT   0/5146
SHAREWRE   0/14
SIMPSONS   0/169
STATS_OLD1   0/2539.065
STATS_OLD2   0/2530
STATS_OLD3   0/2395.095
STATS_OLD4   0/1692.25
SURVIVOR   0/495
SYSOPS_CORNER   0/3
SYSOP   0/84
TAGLINES   0/112
TEAMOS2   0/4530
TECH   0/2617
TEST.444   0/105
TRAPDOOR   0/19
TREK   0/755
TUB   0/290
UFO   0/40
UNIX   0/1316
USA_EURLINK   0/102
USR_MODEMS   0/1
VATICAN   0/2740
VIETNAM_VETS   0/14
VIRUS   0/378
VIRUS_INFO   0/201
VISUAL_BASIC   0/473
WHITEHOUSE   0/5187
WIN2000   0/101
WIN32   0/30
WIN95   0/4291
WIN95_OLD1   0/70272
WINDOWS   0/1517
WWB_SYSOP   0/419
WWB_TECH   0/810
ZCC-PUBLIC   0/1
ZEC   4

 
4DOS   0/134
ABORTION   0/7
ALASKA_CHAT   0/506
ALLFIX_FILE   0/1313
ALLFIX_FILE_OLD1   0/7997
ALT_DOS   0/152
AMATEUR_RADIO   0/1039
AMIGASALE   0/14
AMIGA   0/331
AMIGA_INT   0/1
AMIGA_PROG   0/20
AMIGA_SYSOP   0/26
ANIME   0/15
ARGUS   0/924
ASCII_ART   0/340
ASIAN_LINK   0/651
ASTRONOMY   0/417
AUDIO   0/92
AUTOMOBILE_RACING   0/105
BABYLON5   0/17862
BAG   135
BATPOWER   0/361
BBBS.ENGLISH   0/382
BBSLAW   0/109
BBS_ADS   0/5290
BBS_INTERNET   0/507
BIBLE   0/3563
BINKD   0/1119
BINKLEY   0/215
BLUEWAVE   0/2173
CABLE_MODEMS   0/25
CBM   0/46
CDRECORD   0/66
CDROM   0/20
CLASSIC_COMPUTER   0/378
COMICS   0/15
CONSPRCY   0/899
COOKING   42383
COOKING_OLD1   0/24719
COOKING_OLD2   0/40862
COOKING_OLD3   0/37489
COOKING_OLD4   0/35496
COOKING_OLD5   9370
C_ECHO   0/189
C_PLUSPLUS   0/31
DIRTY_DOZEN   0/201
DOORGAMES   0/2388
DOS_INTERNET   0/196
duplikat   6102
ECHOLIST   0/18295
EC_SUPPORT   0/318
ELECTRONICS   0/359
ELEKTRONIK.GER   1534
ENET.LINGUISTIC   0/13
ENET.POLITICS   0/4
ENET.SOFT   0/11701
ENET.SYSOP   34411
ENET.TALKS   0/32
ENGLISH_TUTOR   0/2000
EVOLUTION   0/1335
FDECHO   0/217
FDN_ANNOUNCE   0/7068
FIDONEWS   25226
FIDONEWS_OLD1   0/49742
FIDONEWS_OLD2   0/35949
FIDONEWS_OLD3   0/30874
FIDONEWS_OLD4   0/37224
FIDO_SYSOP   12977
FIDO_UTIL   0/180
FILEFIND   0/209
FILEGATE   0/212
Möte HAM, 16786 texter
 lista första sista föregående nästa
Text 5207, 979 rader
Skriven 2012-04-19 23:30:38 av Amsat List (1:323/120.0)
Ärende: [keps] orb12110.amsa
============================
[keps] orb12110.amsa

Sender: keps-bounces@amsat.org
Return-Path: <keps-bounces@amsat.org>
X-Rcpt: craig.healy@chowda.com
X-UIDL: 1334892347.302

SB KEPS @ AMSAT  $ORB12110.O
Orbital Elements  12110.OSCAR

HR AMSAT ORBITAL ELEMENTS FOR OSCAR SATELLITES
FROM WA5QGD FORT WORTH,TX April 19, 2012
Send SUBSCRIBE KEPS/UNSUBSCRIBE KEPS to majordomo@amsat.org only
BID: ORB12110.O
TO ALL RADIO AMATEURS BT

Satellite: AO-07
Catalog number: 07530
Epoch time:      12109.61042172
Element set:    0360
Inclination:      101.4020 deg
RA of node:       109.1246 deg
Eccentricity:    0.0012101
Arg of perigee:   040.0232 deg
Mean anomaly:     320.1724 deg
Mean motion:   12.53588692 rev/day
Decay rate:       -2.7e-07 rev/day^2
Epoch rev:           71258
Checksum:              226

Satellite: FO-29
Catalog number: 24278
Epoch time:      12109.95124954
Element set:    0855
Inclination:      098.5812 deg
RA of node:       218.3679 deg
Eccentricity:    0.0350736
Arg of perigee:   182.5348 deg
Mean anomaly:     177.4022 deg
Mean motion:   13.52981348 rev/day
Decay rate:       -1.3e-07 rev/day^2
Epoch rev:           77394
Checksum:              341

Satellite: SO-33
Catalog number: 25509
Epoch time:      12109.80804481
Element set:     211
Inclination:      031.4334 deg
RA of node:       309.7029 deg
Eccentricity:    0.0352162
Arg of perigee:   043.7266 deg
Mean anomaly:     319.0672 deg
Mean motion:   14.28700483 rev/day
Decay rate:       3.22e-06 rev/day^2
Epoch rev:           70415
Checksum:              271

Satellite: RS-22
Catalog number: 27939
Epoch time:      12110.62920926
Element set:     279
Inclination:      097.8180 deg
RA of node:       314.4378 deg
Eccentricity:    0.0014599
Arg of perigee:   091.3100 deg
Mean anomaly:     268.9778 deg
Mean motion:   14.63971900 rev/day
Decay rate:       5.26e-06 rev/day^2
Epoch rev:           45731
Checksum:              328

Satellite: VO-52
Catalog number: 28650
Epoch time:      12109.87788874
Element set:    0081
Inclination:      097.6032 deg
RA of node:       143.7237 deg
Eccentricity:    0.0025474
Arg of perigee:   234.3585 deg
Mean anomaly:     125.5246 deg
Mean motion:   14.82824431 rev/day
Decay rate:      1.225e-05 rev/day^2
Epoch rev:           37618
Checksum:              319

Satellite: HO-68
Catalog number: 36122
Epoch time:      12110.38570161
Element set:     390
Inclination:      100.3666 deg
RA of node:       170.9043 deg
Eccentricity:    0.0007166
Arg of perigee:   242.4823 deg
Mean anomaly:     117.5558 deg
Mean motion:   13.16294509 rev/day
Decay rate:       -4.4e-07 rev/day^2
Epoch rev:           11265
Checksum:              274

/EX
SB KEPS @ AMSAT  $ORB12110.D
Orbital Elements  12110.MICROS

HR AMSAT ORBITAL ELEMENTS FOR THE MICROSATS
FROM WA5QGD FORT WORTH,TX April 19, 2012
Send SUBSCRIBE KEPS/UNSUBSCRIBE KEPS to majordomo@amsat.org only
BID: ORB12110.D
TO ALL RADIO AMATEURS BT

Satellite: UO-11
Catalog number: 14781
Epoch time:      12109.91269221
Element set:    0857
Inclination:      097.9607 deg
RA of node:       169.9373 deg
Eccentricity:    0.0008187
Arg of perigee:   220.6057 deg
Mean anomaly:     139.4548 deg
Mean motion:   14.80383281 rev/day
Decay rate:       2.76e-06 rev/day^2
Epoch rev:           51116
Checksum:              321

Satellite: AO-16
Catalog number: 20439
Epoch time:      12110.81574390
Element set:     446
Inclination:      098.4251 deg
RA of node:       055.8374 deg
Eccentricity:    0.0010894
Arg of perigee:   337.7500 deg
Mean anomaly:     022.3210 deg
Mean motion:   14.32038695 rev/day
Decay rate:       1.35e-06 rev/day^2
Epoch rev:           16164
Checksum:              277

Satellite: LO-19
Catalog number: 20442
Epoch time:      12109.86957818
Element set:    0384
Inclination:      098.3902 deg
RA of node:       058.1346 deg
Eccentricity:    0.0011580
Arg of perigee:   331.7114 deg
Mean anomaly:     028.3433 deg
Mean motion:   14.32257554 rev/day
Decay rate:        3.4e-07 rev/day^2
Epoch rev:           16169
Checksum:              297

Satellite: AO-27
Catalog number: 22825
Epoch time:      12109.81883923
Element set:    0083
Inclination:      098.5703 deg
RA of node:       053.5721 deg
Eccentricity:    0.0009354
Arg of perigee:   093.6059 deg
Mean anomaly:     266.6203 deg
Mean motion:   14.29447475 rev/day
Decay rate:        8.2e-07 rev/day^2
Epoch rev:           96799
Checksum:              335

Satellite: IO-26
Catalog number: 22826
Epoch time:      12109.97103273
Element set:    0833
Inclination:      098.5648 deg
RA of node:       054.1071 deg
Eccentricity:    0.0009865
Arg of perigee:   086.4957 deg
Mean anomaly:     273.7351 deg
Mean motion:   14.29719892 rev/day
Decay rate:       1.06e-06 rev/day^2
Epoch rev:           96814
Checksum:              337

Satellite: GO-32
Catalog number: 25397
Epoch time:      12110.41535115
Element set:     754
Inclination:      098.3575 deg
RA of node:       092.0316 deg
Eccentricity:    0.0002210
Arg of perigee:   091.2731 deg
Mean anomaly:     268.8718 deg
Mean motion:   14.23268739 rev/day
Decay rate:       1.29e-06 rev/day^2
Epoch rev:           71566
Checksum:              295

Satellite: NO-44
Catalog number: 26931
Epoch time:      12110.42215376
Element set:      20
Inclination:      067.0511 deg
RA of node:       271.7947 deg
Eccentricity:    0.0007181
Arg of perigee:   272.4027 deg
Mean anomaly:     087.6258 deg
Mean motion:   14.29782634 rev/day
Decay rate:       -8.0e-08 rev/day^2
Epoch rev:           55084
Checksum:              289

